Weather History for Marietta, GA

Change the Weather History Date:

Thursday, December 5, 2013

  Actual Average Record
Temperature  
Mean Temperature 68 °F -  
Max Temperature 71 °F 54 °F 75 °F (1998)
Min Temperature 64 °F 37 °F 26 °F (2006)
Cooling Degree Days 2    
Growing Degree Days 18 (Base 50)    
Moisture  
Dew Point 66 °F    
Average Humidity 99    
Maximum Humidity 100    
Minimum Humidity 88    
Precipitation  
Precipitation 0.91 in - - ()
Sea Level Pressure  
Sea Level Pressure 30.04 in    
Wind  
Wind Speed 4 mph (South)    
Max Wind Speed 9 mph    
Max Gust Speed -    
Visibility 7 miles    
Events Rain , Thunderstorm    
Averages and records for this station are not official NWS values.
T = Trace of Precipitation, MM = Missing Value Source: NWS Daily Summary

Daily Weather History Graph

Daily Weather History Graph

Search for Another Location

Airport:

Trip Planner

Search our weather history database for the weather conditions in past years. The results will help you decide how hot, cold, wet, or windy it might be!

Date:

Astronomy

Dec. 05, 2013 Rise Set
Actual Time 7:28 AM EST 5:28 PM EST
Civil Twilight 7:01 AM EST 5:56 PM EST
Nautical Twilight 6:30 AM EST 6:27 PM EST
Astronomical Twilight 5:59 AM EST 6:57 PM EST
Moon 9:51 AM EST (12/5) 8:44 PM EST (12/5)
Length of Visible Light 10h 55m
Length of Day
10h 00m
Waxing Crescent, 10% of the Moon is Illuminated
Dec 5
Waxing Crescent
Dec 9
First Quarter
Dec 17
Full
Dec 25
Last Quarter
Jan 1
New

Hourly Weather History & Observations

Time (EST) Temp. Dew Point Humidity Pressure Visibility Wind Dir Wind Speed Gust Speed Precip Events Conditions
12:04 AM 64.4 °F 64.4 °F 100% 30.05 in 10.0 mi South 3.5 mph - N/A   Overcast
12:29 AM 64.4 °F 64.4 °F 100% 30.05 in 10.0 mi South 2.3 mph - N/A   Overcast
12:32 AM 64.4 °F 64.4 °F 100% 30.05 in 10.0 mi South 1.2 mph - N/A   Light Drizzle
12:36 AM 64.4 °F 64.4 °F 100% 30.05 in 10.0 mi South 2.3 mph - N/A   Overcast
12:51 AM 64.4 °F 64.4 °F 100% 30.05 in 10.0 mi Calm Calm - N/A   Overcast
12:58 AM 64.8 °F 64.8 °F 100% 30.04 in 10.0 mi WSW 1.2 mph - 0.00 in   Overcast
1:03 AM 64.4 °F 64.4 °F 100% 30.05 in 10.0 mi SSW 3.5 mph - N/A Rain Light Rain
1:12 AM 64.4 °F 64.4 °F 100% 30.04 in 10.0 mi Variable 2.3 mph - N/A   Overcast
1:22 AM 64.4 °F 64.4 °F 100% 30.04 in 10.0 mi South 3.5 mph - N/A   Overcast
1:47 AM 64.4 °F 64.4 °F 100% 30.04 in 10.0 mi South 3.5 mph - N/A   Overcast
1:58 AM 64.9 °F 64.9 °F 100% 30.03 in 10.0 mi South 4.6 mph - 0.00 in   Overcast
2:25 AM 64.4 °F 64.4 °F 100% 30.04 in 10.0 mi SSE 3.5 mph - N/A Rain Light Rain
2:30 AM 64.4 °F 64.4 °F 100% 30.03 in 10.0 mi SSE 4.6 mph - N/A Rain Light Rain
2:34 AM 64.4 °F 64.4 °F 100% 30.03 in 10.0 mi SSE 4.6 mph - N/A   Overcast
2:49 AM 64.4 °F 64.4 °F 100% 30.03 in 10.0 mi SSE 3.5 mph - N/A   Overcast
2:58 AM 64.9 °F 64.9 °F 100% 30.01 in 8.0 mi SSE 4.6 mph - 0.01 in   Overcast
3:03 AM 64.4 °F 64.4 °F 100% 30.03 in 6.0 mi SSE 4.6 mph - N/A   Overcast
3:13 AM 64.4 °F 64.4 °F 100% 30.04 in 6.0 mi SSE 4.6 mph - N/A   Overcast
3:23 AM 64.4 °F 64.4 °F 100% 30.03 in 7.0 mi South 3.5 mph - N/A Rain Light Rain
3:31 AM 64.4 °F 64.4 °F 100% 30.03 in 9.0 mi SSE 4.6 mph - N/A   Overcast
3:36 AM 64.4 °F 64.4 °F 100% 30.03 in 7.0 mi SSE 4.6 mph - N/A Rain Light Rain
3:41 AM 64.4 °F 64.4 °F 100% 30.03 in 5.0 mi SSE 5.8 mph - N/A   Light Drizzle
3:46 AM 64.4 °F 64.4 °F 100% 30.03 in 5.0 mi SSE 5.8 mph - N/A   Overcast
3:51 AM 64.4 °F 64.4 °F 100% 30.03 in 8.0 mi South 5.8 mph - N/A   Overcast
3:56 AM 64.4 °F 64.4 °F 100% 30.03 in 10.0 mi South 5.8 mph - N/A   Overcast
3:58 AM 65.1 °F 65.1 °F 100% 30.01 in 10.0 mi South 5.8 mph - 0.00 in   Overcast
4:23 AM 64.4 °F 64.4 °F 100% 30.03 in 10.0 mi South 4.6 mph - N/A   Overcast
4:28 AM 64.4 °F 64.4 °F 100% 30.03 in 10.0 mi South 5.8 mph - N/A   Overcast
4:48 AM 64.4 °F 64.4 °F 100% 30.03 in 10.0 mi South 4.6 mph - N/A   Overcast
4:58 AM 65.1 °F 65.1 °F 100% 30.02 in 10.0 mi South 4.6 mph - N/A   Overcast
5:53 AM 64.4 °F 64.4 °F 100% 30.04 in 10.0 mi South 3.5 mph - N/A   Overcast
5:58 AM 65.3 °F 65.3 °F 100% 30.03 in 10.0 mi SSE 4.6 mph - N/A   Overcast
6:08 AM 64.4 °F 64.4 °F 100% 30.04 in 10.0 mi South 5.8 mph - N/A   Overcast
6:28 AM 66.2 °F 66.2 °F 100% 30.05 in 10.0 mi South 3.5 mph - N/A   Overcast
6:38 AM 64.4 °F 64.4 °F 100% 30.05 in 10.0 mi South 3.5 mph - N/A   Overcast
6:48 AM 66.2 °F 66.2 °F 100% 30.05 in 10.0 mi South 1.2 mph - N/A   Overcast
6:58 AM 65.3 °F 65.3 °F 100% 30.05 in 5.0 mi SSE 2.3 mph - N/A   Overcast
7:06 AM 66.2 °F 66.2 °F 100% 30.05 in 4.0 mi Calm Calm - N/A Rain Light Rain
7:12 AM 64.4 °F 64.4 °F 100% 30.06 in 2.0 mi SW 1.2 mph - N/A Rain Rain
7:17 AM 64.4 °F 64.4 °F 100% 30.06 in 3.0 mi NW 1.2 mph - N/A Rain Light Rain
7:26 AM 66.2 °F 66.2 °F 100% 30.07 in 4.0 mi West 4.6 mph - N/A   Overcast
7:58 AM 66.2 °F 66.2 °F 100% 30.06 in 3.0 mi South 2.3 mph - 0.08 in   Overcast
8:16 AM 66.2 °F 66.2 °F 100% 30.08 in 2.5 mi South 5.8 mph - N/A   Light Drizzle
8:31 AM 66.2 °F 66.2 °F 100% 30.08 in 2.0 mi South 5.8 mph - N/A   Light Drizzle
8:58 AM 65.5 °F 65.5 °F 100% 30.08 in 2.0 mi South 5.8 mph - 0.00 in   Light Drizzle
9:25 AM 66.2 °F 66.2 °F 100% 30.09 in 2.0 mi South 5.8 mph - N/A   Light Drizzle
9:30 AM 66.2 °F 66.2 °F 100% 30.09 in 3.0 mi South 5.8 mph - N/A   Overcast
9:58 AM 66.2 °F 66.2 °F 100% 30.09 in 3.0 mi South 4.6 mph - 0.00 in   Overcast
10:13 AM 66.2 °F 66.2 °F 100% 30.10 in 5.0 mi SSW 4.6 mph - N/A   Overcast
10:48 AM 68.0 °F 68.0 °F 100% 30.10 in 7.0 mi South 4.6 mph - N/A   Overcast
10:58 AM 67.3 °F 67.3 °F 100% 30.09 in 7.0 mi South 6.9 mph - N/A   Overcast
11:33 AM 68.0 °F 68.0 °F 100% 30.09 in 7.0 mi Variable 5.8 mph - N/A   Overcast
11:58 AM 68.2 °F 67.3 °F 97% 30.07 in 7.0 mi South 5.8 mph - N/A   Overcast
12:28 PM 69.8 °F 68.0 °F 94% 30.07 in 7.0 mi South 5.8 mph - N/A   Overcast
12:58 PM 69.3 °F 68.0 °F 96% 30.04 in 7.0 mi South 3.5 mph - N/A   Overcast
1:18 PM 69.8 °F 68.0 °F 94% 30.04 in 10.0 mi Variable 5.8 mph - N/A   Overcast
1:38 PM 71.6 °F 68.0 °F 88% 30.03 in 10.0 mi SSE 5.8 mph - N/A   Overcast
1:58 PM 71.6 °F 68.4 °F 89% 30.01 in 10.0 mi South 5.8 mph - N/A   Overcast
2:34 PM 71.6 °F 68.0 °F 88% 30.01 in 10.0 mi SSE 6.9 mph - N/A   Overcast
2:58 PM 71.2 °F 67.6 °F 88% 29.99 in 10.0 mi South 6.9 mph - N/A   Overcast
3:21 PM 71.6 °F 68.0 °F 88% 30.00 in 6.0 mi South 5.8 mph - N/A Rain Light Rain
3:25 PM 71.6 °F 68.0 °F 88% 30.00 in 4.0 mi South 4.6 mph - N/A Rain Rain
3:28 PM 69.8 °F 68.0 °F 94% 30.00 in 3.0 mi South 4.6 mph - N/A Rain Light Rain
3:46 PM 69.8 °F 68.0 °F 94% 30.01 in 7.0 mi Variable 3.5 mph - N/A Rain Light Rain
3:53 PM 68.0 °F 68.0 °F 100% 30.01 in 7.0 mi SSE 3.5 mph - N/A Rain Light Rain
3:58 PM 68.9 °F 68.4 °F 98% 29.99 in 7.0 mi SSE 4.6 mph - 0.02 in Rain Light Rain
4:03 PM 68.0 °F 68.0 °F 100% 30.00 in 10.0 mi South 3.5 mph - N/A   Overcast
4:40 PM 68.0 °F 68.0 °F 100% 30.01 in 7.0 mi South 3.5 mph - N/A Rain Light Rain
4:58 PM 68.7 °F 68.7 °F 100% 29.99 in 7.0 mi SSE 4.6 mph - 0.01 in   Overcast
5:26 PM 68.0 °F 68.0 °F 100% 30.01 in 7.0 mi South 3.5 mph - N/A Rain Light Rain
5:59 PM 68.5 °F 68.5 °F 100% 30.00 in 7.0 mi SSE 3.5 mph - 0.00 in Thunderstorm Thunderstorm
6:02 PM 68.0 °F 68.0 °F 100% 30.00 in 6.0 mi Variable 2.3 mph - N/A Rain , Thunderstorm Light Thunderstorms and Rain
6:22 PM 68.0 °F 68.0 °F 100% 30.01 in 10.0 mi NW 1.2 mph - N/A Rain Light Rain
6:46 PM 68.0 °F 68.0 °F 100% 30.02 in 7.0 mi SSW 5.8 mph - N/A Rain Light Rain
6:58 PM 69.1 °F 68.7 °F 99% 30.01 in 6.0 mi SSE 3.5 mph - 0.03 in Rain Light Rain
7:07 PM 68.0 °F 68.0 °F 100% 30.02 in 2.0 mi SSW 3.5 mph - N/A Rain Light Rain
7:15 PM 68.0 °F 68.0 °F 100% 30.02 in 1.5 mi SSW 2.3 mph - N/A Rain Heavy Rain
7:23 PM 68.0 °F 68.0 °F 100% 30.02 in 6.0 mi WNW 5.8 mph - N/A Rain Light Rain
7:58 PM 68.0 °F 68.0 °F 100% 30.01 in 2.0 mi WSW 5.8 mph - 0.37 in Rain , Thunderstorm Light Thunderstorms and Rain
8:01 PM 68.0 °F 68.0 °F 100% 30.03 in 1.0 mi Variable 5.8 mph - N/A Rain , Thunderstorm Heavy Thunderstorms and Rain
8:08 PM 68.0 °F 68.0 °F 100% 30.03 in 5.0 mi Variable 6.9 mph - N/A Rain , Thunderstorm Light Thunderstorms and Rain
8:17 PM 68.0 °F 68.0 °F 100% 30.03 in 5.0 mi SSW 6.9 mph - N/A Rain Light Rain
8:49 PM 68.0 °F 68.0 °F 100% 30.02 in 7.0 mi SW 4.6 mph - N/A   Light Drizzle
8:58 PM 67.5 °F 67.5 °F 100% 30.01 in 7.0 mi SSW 2.3 mph - 0.37 in   Light Drizzle
9:45 PM 68.0 °F 68.0 °F 100% 30.03 in 7.0 mi South 2.3 mph - N/A   Overcast
9:58 PM 67.6 °F 67.6 °F 100% 30.01 in 7.0 mi South 3.5 mph - 0.00 in   Overcast
10:13 PM 68.0 °F 68.0 °F 100% 30.03 in 4.0 mi South 5.8 mph - N/A Rain Light Rain
10:50 PM 68.0 °F 68.0 °F 100% 30.03 in 5.0 mi South 8.1 mph - N/A Rain Light Rain
10:58 PM 68.4 °F 68.0 °F 99% 30.03 in 7.0 mi South 8.1 mph - 0.02 in   Light Drizzle
10:59 PM 68.0 °F 68.0 °F 100% 30.04 in 10.0 mi South 9.2 mph - N/A   Mostly Cloudy
11:09 PM 68.0 °F 68.0 °F 100% 30.03 in 10.0 mi South 6.9 mph - N/A   Mostly Cloudy
11:10 PM 68.0 °F 68.0 °F 100% 30.03 in 10.0 mi South 8.1 mph - N/A   Light Drizzle
11:15 PM 68.0 °F 68.0 °F 100% 30.03 in 10.0 mi South 9.2 mph - N/A   Light Drizzle
11:18 PM 68.0 °F 68.0 °F 100% 30.03 in 10.0 mi South 6.9 mph - N/A   Overcast
11:23 PM 68.0 °F 68.0 °F 100% 30.03 in 10.0 mi South 8.1 mph - N/A   Overcast
11:33 PM 68.0 °F 68.0 °F 100% 30.03 in 10.0 mi South 6.9 mph - N/A   Mostly Cloudy
11:38 PM 68.0 °F 68.0 °F 100% 30.04 in 10.0 mi South 5.8 mph - N/A   Overcast
11:58 PM 68.0 °F 68.0 °F 100% 30.03 in 10.0 mi South 6.9 mph - 0.00 in   Overcast